星链-31351 (STARLINK-31351 )

导读

STARLINK-31351是美国太空探索技术公司(SpaceX)星链互联网星座的卫星,于2024年2月15日发射入轨,属于星链星座扩容的一部分,星链项目旨在为全球用户提供高速低延迟的卫星互联网服务,该卫星加入后进一步扩充了星链星座的覆盖范围与服务能力。

基本信息
目录编号:
58972
目录名称:
STARLINK-31351
国际标识:
2024-031H
轨道中心:
EARTH
卫星名称:
星链-31351
卫星全名:
星链-31351 (STARLINK-31351 )
卫星状态:
在轨 (已飞行939 天)
发射日期:
2024-02-15 UTC
国别 :
美国 (US)
星等 :
--
该卫星已列入 空间交会检测服务 Space Conjunction Data Service (SCDS) ,当前飞行风险评估等级: 高风险
轨道信息
数据来源 国际轨道数据
星历时间: 2026-09-11T11:28:22+0800
16小时前
查看轨道信息
半长轴: 6840.924km
偏心率: 0.0001467
轨道倾角: 53.160°
近地点辐角 92.590°
升交点赤经 153.397°
平近点角 267.527°
近地点: 461.783km
远地点: 463.791km
周期: 93.849分钟
每日圈数: 15.343721
详细信息
固有亮度:
5
最大亮度:
0.3
卫星平台:
Starlink v2.0 mini
覆盖范围:
全球
运营商:
太空探索技术公司
运营商所在国:
美国
制造商(研发单位):
太空探索技术公司
制造商所在国:
美国
使用方式:
暂无
卫星简介
星链(Starlink)计划是由太空探索技术公司(SpaceX)提出的一个巨型低轨卫星互联网星座项目,计划在2019年至2024年间在太空搭建由约1.2万颗卫星组成的“星链”网络,其中1584颗将部署在地球上空550千米处的近地轨道,并从2020年开始工作。该卫星仍在工作。
2D轨道图
3D轨道图
轨道高度分析图
轨道倾角分析图
轨道综合分析图
查看轨道综合分析图
交会数据列表
事件ID 空间交会对象 最接近时刻(TCA) 交会距离 交会风险概率(CRP) 交会风险指数(CRI) 操作
CDM_260914-011905-897206-295421
2026-09-14T
01:19:53+0000
0.303 km
远距离
3.575408E-4 高风险 0.86
CDM_260913-102805-897206-295421
2026-09-13T
10:28:52+0000
0.313 km
远距离
3.379331E-4 高风险 0.86
CDM_260908-033805-897206-663723
2026-09-08T
03:38:05+0000
0.582 km
远距离
1.24831E-4 高风险 0.77
CDM_260912-211705-897206-920821
2026-09-12T
21:17:40+0000
0.809 km
远距离
7.143033E-6 低风险 0.52
CDM_260913-120205-897206-295421
2026-09-13T
12:02:39+0000
1.629 km
极远距离
3.098585E-6 低风险 0.45
CDM_260914-080805-897206-663721
2026-09-14T
08:08:39+0000
1.859 km
极远距离
3.045486E-6 低风险 0.45
CDM_260912-203005-897206-920821
2026-09-12T
20:30:47+0000
1.096 km
极远距离
2.580191E-6 低风险 0.43
CDM_260914-025305-897206-295421
2026-09-14T
02:53:40+0000
1.880 km
极远距离
2.069962E-6 低风险 0.41
CDM_260908-020405-897206-663723
2026-09-08T
02:04:18+0000
2.343 km
极远距离
1.754559E-6 低风险 0.4
CDM_260913-085505-897206-295421
2026-09-13T
08:55:04+0000
2.074 km
极远距离
1.625485E-6 低风险 0.39
与全量物体交会距离演化趋势
与全量物体交会风险概率演化趋势